Location: Paddlesworth
(51.1000°N, 1.1333°E)
Time: 13:12:26
(UTC+00:00)

Cosmos 2297 - Pass Details

Date: 11 May 2021
Orbit: 837 x 857 km, 71.0° (Epoch: 19 June)

Event Time Altitude Azimuth Distance (km) Brightness Sun altitude
Exits shadow 23:04:15 24° 217° (SW) 1,696 4.9 -20.0°
Maximum altitude 23:07:48 78° 301° (WNW) 871 3.8 -20.1°
Drops below altitude 10° 23:13:31 10° 28° (NNE) 2,476 6.8 -20.3°
Sets 23:15:58 0° 30° (NNE) 3,411 7.7 -20.3°
